Wind_Speed
13 13 17 22 23 21 20 19 20 20 21 22 23 23 23 23 24 25 27 28 28 26 24 24 25 26 25 24 24 24 24 23 22 21 20 20 19 18 17 17 16 15 16 17 16 15 14 13 13 13 13 12 11 11 12 12 12 12 12 12 13 14 14 14 14 13 14 15 15 16 15 16 15 14 14 13 13 13 14 14 14 14 15 16 16
14 12 13 18 22 24 23 22 22 22 22 23 23 24 23 23 24 26 27 29 29 27 26 25 26 26 27 27 26 25 24 24 24 23 22 20 18 17 18 17 16 16 17 17 16 15 14 13 13 13 14 13 13 13 13 14 14 14 13 13 15 16 15 14 14 13 12 13 16 17 17 17 17 16 16 15 15 16 17 17 16 15 15 16 16
16 14 13 14 18 22 25 26 26 24 24 24 24 24 24 24 25 26 27 29 30 28 27 27 26 26 27 27 27 27 25 24 24 23 24 22 19 18 19 19 18 18 18 18 17 16 16 16 15 14 14 14 14 14 14 16 17 15 15 15 15 16 16 15 15 14 13 13 15 17 17 18 18 17 17 17 17 19 19 18 17 17 17 16 16
17 17 16 14 15 18 21 25 27 26 25 24 23 23 24 25 25 25 26 28 29 29 28 28 28 28 28 27 28 28 26 26 25 24 24 23 21 21 20 20 20 19 19 20 18 17 17 17 16 16 15 15 15 15 15 17 18 17 17 17 16 16 17 16 16 17 16 15 15 16 17 18 17 17 17 18 18 18 19 18 18 17 17 17 17
18 18 19 17 16 18 19 22 25 28 27 24 23 24 25 25 25 25 25 26 28 29 30 30 30 30 30 28 28 28 27 27 26 25 25 24 23 22 21 20 21 19 20 21 21 20 19 17 16 17 17 17 17 17 16 18 19 19 18 18 17 17 18 18 17 18 17 15 14 15 17 18 18 17 17 18 19 19 20 20 19 18 18 18 19
19 20 22 21 20 20 21 23 24 25 25 25 26 26 26 26 26 26 26 26 27 30 31 31 30 30 31 30 29 29 28 28 28 28 27 26 24 22 20 21 22 21 21 22 22 22 22 20 18 18 18 19 19 19 18 18 19 19 19 20 19 18 18 18 18 17 17 16 15 15 17 18 18 17 17 18 20 20 21 21 21 20 19 18 19
20 22 24 23 23 22 21 22 24 24 25 26 29 29 27 26 26 26 27 27 28 31 31 29 29 31 32 31 32 31 30 29 29 29 28 26 24 22 21 22 23 23 22 22 22 22 22 21 20 20 20 20 19 19 19 19 19 19 20 20 19 19 19 18 18 17 17 16 15 16 17 17 17 17 18 18 19 20 20 21 20 19 18 17 18
22 23 25 24 23 23 22 21 22 23 24 25 28 30 29 27 27 28 29 29 29 30 29 29 30 32 32 33 33 34 32 30 29 29 28 27 25 23 23 23 22 22 22 21 22 22 21 20 21 21 22 21 20 19 20 20 19 19 20 20 19 18 18 18 18 18 18 17 16 15 15 16 16 17 17 17 17 18 19 20 20 19 18 18 18
25 25 26 25 24 23 23 22 21 22 22 23 25 27 28 28 29 30 29 28 28 29 29 30 31 33 34 35 35 36 35 32 30 29 28 28 26 25 25 24 22 22 20 20 21 21 20 19 20 21 22 23 21 21 20 20 19 20 19 19 19 18 17 17 18 18 17 17 16 14 14 14 15 15 15 16 16 16 17 17 17 18 18 18 17
24 24 24 25 24 24 23 22 23 23 22 22 23 24 26 27 29 28 25 24 25 27 29 31 31 33 35 37 37 37 35 32 31 30 29 28 28 27 26 25 23 23 21 20 20 20 20 20 20 22 23 23 22 22 22 20 19 19 19 18 18 17 17 17 17 17 16 15 14 14 13 13 13 14 14 14 15 15 14 14 14 15 16 14 13
23 23 22 23 23 22 21 21 20 20 20 20 20 21 24 26 27 26 23 23 24 25 26 27 28 30 33 35 36 35 33 31 29 29 30 30 29 27 26 25 25 24 23 21 20 21 21 21 22 23 23 23 22 22 23 22 19 18 18 18 17 17 16 16 16 16 15 14 14 13 13 13 13 12 12 12 12 12 12 11 11 12 12 11 11
20 20 20 21 21 19 19 19 17 16 17 18 18 19 22 24 25 25 24 23 24 24 24 23 24 26 28 29 31 31 31 30 28 29 31 31 29 28 27 27 26 26 25 24 22 22 22 22 23 23 22 22 21 21 22 21 18 16 17 17 17 16 16 16 16 15 15 14 13 13 13 13 12 11 11 11 10 10 10 11 11 12 12 11 11
15 15 17 19 20 19 18 18 18 19 19 19 18 18 19 21 22 23 23 23 23 23 22 20 20 22 23 23 25 28 30 29 28 29 31 30 29 29 29 28 27 27 26 25 24 23 22 22 23 22 21 21 21 21 21 20 16 16 17 17 17 16 16 16 16 15 15 14 13 14 14 13 11 11 12 11 10 10 11 12 13 13 13 12 13
14 12 13 16 18 19 18 16 17 18 19 19 19 19 18 19 19 20 21 21 21 21 19 16 16 18 19 19 21 24 27 29 29 30 30 30 29 28 29 29 28 28 27 26 25 23 22 22 22 21 21 21 20 20 20 19 16 16 17 17 17 16 15 16 17 16 15 14 13 13 12 11 11 11 11 11 12 12 12 13 14 14 14 14 15
16 13 13 15 16 17 18 17 16 16 17 18 18 18 18 18 19 18 18 18 19 19 17 15 16 16 16 18 19 21 23 26 27 28 29 29 29 28 28 28 28 28 28 27 25 23 22 21 20 20 21 20 19 19 20 18 17 17 17 17 17 16 15 15 16 15 15 13 12 11 11 11 11 11 12 12 13 14 14 14 14 14 15 16 17
20 17 15 16 17 17 17 17 16 16 16 16 17 17 16 16 17 16 15 16 19 19 17 16 18 17 17 17 19 20 21 23 23 24 26 27 28 27 28 28 27 27 27 27 25 23 21 20 19 20 21 19 18 19 19 17 16 16 15 15 16 15 14 14 13 13 13 12 12 12 12 12 12 12 13 14 14 15 16 17 17 18 19 20 20
21 22 18 17 20 19 17 17 17 17 17 16 16 15 15 15 15 14 14 15 17 17 16 16 17 16 16 17 18 19 21 22 23 24 25 26 27 28 28 28 28 27 26 25 24 22 21 19 19 20 20 18 17 18 18 16 15 15 15 15 16 15 14 14 13 13 13 13 14 14 14 14 14 14 15 16 17 18 19 20 20 21 22 22 21
20 22 21 19 21 20 18 18 17 17 17 17 15 14 14 15 15 15 14 13 12 11 12 13 13 13 15 16 17 17 18 21 23 24 25 26 27 27 27 26 26 26 25 24 23 22 20 19 19 20 19 17 17 17 17 15 15 15 15 15 16 15 15 14 14 14 14 13 13 13 14 14 15 16 17 17 18 19 20 20 21 22 23 22 22
20 20 22 21 21 20 18 17 16 16 17 17 15 14 14 15 15 15 14 12 11 10 10 11 12 12 13 14 14 14 16 18 19 20 22 23 23 24 25 25 24 25 24 22 21 20 19 18 19 19 17 16 16 16 15 14 14 15 15 15 15 15 14 14 14 14 14 14 13 14 14 14 15 15 17 18 19 20 20 20 20 21 22 22 22
19 17 19 20 19 20 19 17 15 14 15 16 15 14 13 14 14 14 14 14 13 12 11 11 11 11 11 10 10 11 12 13 13 14 16 17 18 20 21 21 21 21 20 19 18 17 17 18 18 17 15 14 14 14 14 14 14 15 15 15 15 14 14 14 14 15 15 15 15 15 14 14 15 15 16 17 18 18 18 18 19 19 19 20 20
17 16 18 18 17 18 18 17 15 14 14 14 14 13 13 14 15 15 16 16 15 13 11 11 10 10 8 6 6 7 7 8 10 10 10 12 14 17 18 17 17 17 17 16 15 15 16 16 16 15 14 14 14 14 15 15 16 16 16 15 15 15 15 16 16 16 16 15 14 14 13 13 14 14 15 15 15 15 15 16 16 17 17 17 17
17 16 18 17 15 15 15 15 15 14 13 13 13 12 12 12 14 16 18 18 18 15 11 9 8 7 4 2 2 2 3 5 8 9 8 9 11 13 14 14 14 15 15 14 13 14 15 14 14 14 14 15 16 17 17 17 16 16 16 15 15 16 17 17 16 16 16 15 14 14 13 12 12 13 13 13 12 13 13 14 14 14 15 15 15
19 18 18 17 14 13 13 14 14 13 12 12 11 11 11 11 12 15 18 20 21 17 11 7 7 5 3 2 1 1 2 3 5 6 7 7 8 10 10 11 11 12 12 12 12 13 13 13 13 13 15 17 18 17 16 15 15 16 16 15 15 16 16 16 16 15 15 14 13 13 12 12 12 11 11 10 10 11 11 11 12 12 12 13 13
19 19 18 16 14 13 13 13 14 13 13 12 9 9 11 12 12 14 17 19 20 17 10 7 8 8 6 5 3 2 3 4 5 6 7 7 8 9 10 10 11 10 11 11 13 13 13 13 14 15 16 17 16 15 14 13 14 15 15 15 15 14 15 15 14 13 13 13 12 12 11 11 10 9 9 8 9 9 9 9 9 9 10 10 10
19 19 17 15 14 14 14 13 14 13 12 10 9 10 11 12 13 15 16 17 18 15 8 5 8 11 10 9 8 6 5 6 6 7 8 9 9 10 11 10 10 10 10 11 12 12 12 13 14 14 14 14 14 14 13 13 14 14 13 13 13 13 13 13 12 11 11 11 10 9 9 9 8 8 8 8 9 9 9 9 9 8 8 9 9
19 19 16 14 14 16 15 14 14 13 11 11 11 12 13 12 13 15 15 15 15 12 6 4 8 11 11 11 11 8 6 7 7 7 8 9 9 9 8 7 7 8 7 8 9 10 10 11 11 11 11 11 12 12 12 12 12 11 11 11 11 11 11 10 9 9 8 8 8 7 7 8 8 9 9 9 9 9 9 9 9 9 9 9 9
18 18 17 14 14 17 17 16 15 15 13 12 13 13 13 13 12 13 15 14 14 12 8 6 7 8 8 10 11 9 7 7 8 8 8 10 10 8 8 8 8 8 7 7 8 9 9 9 9 9 10 10 10 10 10 10 10 10 10 9 9 8 8 7 6 6 6 6 6 6 7 8 8 8 9 9 8 9 9 9 9 9 9 9 10
17 17 16 14 14 17 20 18 17 16 16 15 14 14 14 13 12 13 14 14 14 14 11 8 7 6 6 7 9 9 7 6 9 11 12 13 12 12 11 11 10 9 8 8 8 8 8 8 8 8 9 9 9 9 8 8 8 8 7 7 6 5 5 5 4 4 4 5 5 5 6 7 7 7 7 8 8 8 8 9 9 9 9 9 10
17 16 15 14 14 17 20 20 18 18 18 17 17 17 16 15 14 13 13 13 14 14 11 8 7 7 7 6 6 8 7 6 8 10 11 12 12 11 10 9 9 8 8 8 8 8 8 8 8 8 8 8 8 7 7 7 6 6 5 5 4 4 4 3 3 3 3 3 3 4 4 5 5 5 6 6 7 7 7 8 8 8 9 9 10
17 16 15 14 14 16 18 19 19 19 18 19 19 19 18 17 16 14 13 15 16 14 11 10 10 10 9 6 5 6 6 7 8 8 8 8 9 8 8 8 8 8 8 8 8 9 9 10 9 9 9 8 8 7 7 6 5 5 5 4 4 3 3 3 2 2 2 2 2 2 3 3 3 4 5 5 5 6 6 7 8 8 9 10 10
18 18 17 16 16 16 16 17 19 20 20 20 20 19 18 17 16 15 16 17 17 15 14 13 13 13 12 8 6 6 8 9 9 9 9 9 9 8 8 8 8 8 9 9 9 9 9 9 9 9 9 8 8 8 7 7 6 6 5 4 4 4 4 3 3 2 2 2 2 1 1 2 2 3 4 4 5 6 7 7 8 9 9 10 11
18 19 18 18 17 17 17 16 18 20 19 19 20 20 18 16 16 17 18 18 18 18 17 16 16 15 14 11 8 8 9 9 9 10 10 10 9 9 9 9 9 9 9 10 9 9 9 9 9 9 8 8 8 7 7 7 7 6 6 5 5 4 4 3 3 3 2 2 1 1 1 2 3 3 4 4 5 6 7 8 9 10 10 11 12
17 17 18 18 19 19 19 18 19 20 19 18 19 20 19 17 17 18 19 19 19 19 19 18 17 16 15 12 10 10 10 10 9 9 9 9 10 10 10 10 10 10 10 10 10 9 9 10 9 9 8 8 7 7 6 6 6 6 5 5 4 4 3 3 3 3 2 2 1 1 1 2 4 4 5 6 7 8 8 9 10 11 12 12 12
16 15 16 18 19 20 20 20 20 20 19 19 20 20 20 20 20 20 20 19 19 19 19 19 18 17 15 13 12 11 11 10 9 9 9 9 10 10 10 10 10 10 10 10 10 10 10 10 10 10 9 8 7 6 5 4 4 4 3 4 4 4 4 3 3 3 3 3 3 3 3 4 5 6 8 9 10 11 12 13 13 13 14 14 15
16 15 14 16 18 20 20 20 20 20 19 20 20 19 20 21 22 22 21 20 18 18 19 19 18 18 16 15 14 13 12 11 11 10 10 9 9 9 9 10 10 10 11 11 11 11 11 10 10 10 10 8 7 7 5 5 4 4 4 4 4 4 4 4 4 5 6 7 7 7 8 8 9 10 11 12 13 14 15 16 17 17 17 17 18
16 16 15 14 15 17 18 18 19 19 19 20 21 21 21 21 21 23 24 23 19 17 18 18 18 18 17 16 15 14 13 13 12 11 10 10 10 10 10 10 11 11 12 12 11 11 11 10 10 10 9 9 8 7 6 6 6 6 6 6 7 7 7 7 7 7 9 10 11 11 12 12 13 14 15 16 16 17 18 20 20 20 20 20 21
16 16 16 15 15 15 16 17 17 18 19 20 21 22 22 21 20 21 23 24 21 17 15 15 16 18 18 17 16 16 15 14 13 12 11 11 11 11 11 11 11 11 12 12 12 11 11 10 10 10 9 8 8 8 8 8 8 8 8 9 10 11 11 11 11 11 11 13 14 15 16 16 16 18 19 20 20 21 22 23 23 24 23 23 24
15 16 16 16 16 15 15 15 16 17 18 19 20 21 21 21 22 21 20 20 18 15 13 13 14 15 16 16 16 16 16 16 14 13 12 12 12 13 13 12 12 13 12 12 12 12 12 11 11 11 11 10 10 10 10 10 10 10 11 11 12 13 13 14 14 14 15 15 16 18 18 19 19 20 21 22 23 24 24 24 25 26 27 26 26
13 15 15 16 16 16 15 14 14 15 17 17 18 19 20 21 21 20 16 15 14 12 11 13 14 14 14 15 16 16 17 17 16 16 15 14 15 15 14 14 13 13 13 13 13 13 13 13 12 12 12 12 12 12 12 12 12 12 12 13 13 14 15 16 16 17 18 18 19 20 20 21 22 22 22 22 23 24 25 26 26 27 28 28 28
13 13 14 14 15 16 17 16 16 15 15 15 16 18 19 19 19 17 15 13 14 14 14 14 14 14 15 15 17 17 17 18 18 18 18 18 17 17 16 15 14 14 14 14 13 13 13 13 14 14 14 14 14 14 14 14 15 15 15 16 16 17 18 18 19 20 20 20 21 21 21 22 23 24 24 23 23 24 25 25 26 26 27 28 28
13 13 12 13 14 15 16 17 17 16 16 15 15 17 19 17 16 17 16 16 16 16 16 16 16 16 15 15 17 18 18 19 19 20 20 20 19 18 17 16 16 15 15 14 14 14 14 14 14 14 15 15 15 16 15 15 16 17 18 18 19 20 20 21 22 23 23 24 23 23 23 23 24 25 26 26 26 26 26 26 26 26 27 27 28
13 12 12 12 13 14 14 15 15 15 15 15 14 17 18 16 16 18 19 18 17 16 17 18 18 17 15 14 16 18 19 19 20 20 19 20 19 18 18 17 17 16 16 15 15 15 14 14 14 14 13 13 14 15 16 16 16 17 17 18 18 19 20 21 23 24 25 25 26 26 26 27 27 27 27 27 27 28 28 28 27 27 27 28 28
12 12 12 12 12 13 14 15 14 14 15 15 13 14 15 16 18 19 20 19 17 16 18 19 19 19 18 17 17 19 19 20 19 19 18 19 19 18 18 18 17 17 16 17 18 18 17 17 17 15 12 12 12 14 15 16 17 18 18 19 20 19 18 18 20 22 23 25 26 27 27 28 28 28 28 28 28 27 27 27 27 27 28 27 27
11 12 12 12 11 12 13 14 14 13 14 13 10 11 13 15 18 19 20 20 18 17 18 19 20 20 21 21 21 21 21 20 20 19 19 19 18 17 17 17 17 17 18 18 19 19 18 19 19 16 14 13 15 16 18 19 19 20 20 21 22 22 20 18 18 20 22 24 26 27 27 27 27 27 26 26 27 26 25 25 24 24 24 24 24
10 10 11 11 11 11 12 13 13 12 11 10 8 8 10 13 18 19 19 20 20 19 19 20 20 20 21 23 24 23 22 21 20 20 19 18 18 18 18 17 17 18 19 20 20 19 20 22 22 18 16 16 17 19 20 21 21 22 22 22 23 24 23 22 22 22 22 22 23 24 24 24 24 23 23 23 23 23 22 22 21 21 21 22 22
9 9 9 10 11 11 11 11 12 11 10 9 8 7 7 10 15 18 18 18 19 18 18 20 21 21 20 21 22 23 23 22 21 20 19 18 19 20 20 20 21 21 22 22 22 21 21 23 21 18 16 17 19 20 20 21 21 21 22 22 23 23 24 25 25 23 21 22 23 23 23 22 22 21 21 21 22 23 22 21 21 21 23 24 24
8 8 8 9 10 11 11 11 11 12 11 11 10 9 8 9 12 15 16 17 17 15 15 17 20 20 20 20 22 24 24 23 22 21 21 22 24 25 24 23 22 21 21 21 20 20 21 22 20 18 17 18 19 20 21 21 21 21 21 22 22 22 22 24 24 22 22 23 24 24 23 22 22 22 21 21 22 23 22 22 22 23 25 27 27
8 7 8 9 9 10 10 10 10 11 12 11 11 10 9 8 10 12 13 14 15 15 15 16 18 18 18 19 23 27 28 26 25 25 26 27 28 28 25 21 19 19 19 19 19 20 20 21 20 19 19 19 20 21 21 21 22 23 23 24 23 23 23 23 24 23 23 24 25 25 25 24 24 24 24 25 25 25 24 24 24 24 26 27 26
8 8 8 9 9 9 9 9 9 10 10 10 10 11 10 10 11 12 13 13 13 13 13 13 15 15 16 18 24 30 32 29 27 27 28 29 29 27 23 20 19 19 19 19 18 18 19 19 19 20 21 21 21 21 21 22 24 25 25 25 26 25 25 25 25 24 24 25 25 26 26 26 27 28 29 29 28 26 25 25 25 25 26 28 27
8 7 7 8 8 8 8 8 8 9 8 8 7 8 9 10 10 11 12 13 13 11 10 10 11 12 12 14 18 24 27 26 25 26 27 28 27 25 21 19 18 18 18 18 18 18 18 19 20 21 22 22 21 21 22 23 24 24 24 25 25 25 25 25 25 25 25 25 26 26 26 27 29 30 31 30 29 27 26 26 26 26 27 28 28
8 7 6 6 7 7 7 7 7 6 5 5 5 6 6 8 9 9 8 10 12 12 11 10 10 9 9 9 9 12 16 18 20 20 19 18 17 18 17 16 15 15 16 17 18 18 19 20 21 22 22 23 23 23 23 23 23 24 24 24 25 25 25 25 26 26 26 26 26 26 26 27 28 29 31 30 29 27 26 26 27 28 28 28 28
Wind_Direction
313 291 267 255 250 246 240 234 231 228 224 222 225 229 231 236 244 245 241 238 236 234 234 236 241 245 248 248 248 250 254 256 257 258 259 259 260 263 265 264 266 270 273 277 278 276 274 269 263 261 261 260 262 264 263 261 260 257 256 259 263 264 264 266 264 261 262 264 265 262 258 260 263 264 268 271 271 269 267 268 271 277 281 283 285
311 299 280 270 265 259 252 243 234 229 224 221 225 231 235 236 236 240 240 237 234 234 234 236 239 243 247 250 250 250 252 254 257 260 262 262 261 263 265 266 266 269 271 274 274 271 270 269 266 265 263 262 261 261 260 259 257 256 257 260 261 263 266 267 265 260 257 261 266 268 268 266 265 265 265 268 270 269 267 267 270 273 275 276 279
306 303 292 276 266 262 260 254 243 233 226 225 228 233 236 238 237 238 238 235 234 235 236 239 242 243 245 248 251 252 252 252 254 256 259 261 260 260 263 265 265 265 268 270 268 267 267 268 268 267 266 266 264 261 260 259 258 256 256 257 259 265 268 267 268 270 266 262 263 266 268 269 268 266 267 268 268 268 269 272 275 275 270 267 270
301 299 292 280 264 257 261 264 258 247 236 230 230 233 236 237 237 238 236 234 235 236 238 241 243 244 245 246 248 250 252 254 254 254 256 258 259 260 262 264 264 265 268 268 264 262 262 263 266 266 266 267 266 263 262 261 261 259 257 258 260 264 265 264 267 270 267 262 262 263 265 268 269 268 268 269 268 267 270 274 276 275 271 267 268
297 293 287 281 269 254 251 261 263 257 250 243 237 237 242 243 241 242 242 239 237 236 237 239 242 245 247 247 248 249 251 254 255 255 256 257 257 260 265 270 270 270 271 271 268 268 265 261 263 266 267 268 267 264 262 261 262 261 260 261 260 260 261 263 264 265 265 266 267 269 269 269 269 269 269 270 270 269 271 271 273 276 276 271 269
289 285 282 279 274 261 251 252 256 256 256 253 247 242 243 246 247 248 249 247 241 238 239 239 241 244 248 250 251 250 249 251 254 255 256 258 259 261 266 270 271 270 271 270 270 274 274 267 263 263 263 264 266 266 263 261 262 263 263 261 261 261 261 261 262 264 267 268 269 272 270 268 269 269 267 266 267 268 271 273 276 279 278 274 272
283 277 277 277 274 269 261 254 252 253 254 255 254 250 246 247 249 250 250 250 246 243 243 243 243 245 247 250 253 253 250 248 250 254 257 259 261 263 266 268 269 270 272 270 268 270 272 269 266 265 263 263 262 263 265 264 263 263 263 262 260 260 261 261 264 268 269 267 268 269 269 268 269 269 267 268 269 270 272 275 277 278 277 275 276
285 279 275 275 276 276 271 263 259 257 255 256 257 256 253 252 251 248 246 248 249 247 247 247 249 249 249 250 251 252 251 249 250 254 257 258 259 261 263 265 266 268 270 271 271 273 272 267 266 269 270 270 267 266 267 266 262 259 259 261 261 259 262 265 266 268 270 270 269 268 269 271 271 271 272 273 275 274 273 274 275 276 277 277 279
291 289 282 278 279 281 281 278 274 270 265 261 260 261 263 262 258 251 246 247 249 249 249 250 253 255 256 254 251 249 249 249 250 253 255 257 258 259 260 261 263 264 265 268 271 273 270 265 265 270 273 273 272 269 267 262 260 259 257 259 261 261 265 267 267 268 269 270 268 265 266 268 268 269 270 272 274 274 273 273 274 277 279 280 279
292 294 291 289 287 285 290 293 289 288 286 277 273 273 272 270 266 259 254 251 250 248 248 251 255 258 259 257 253 251 249 247 249 253 254 255 256 257 258 259 262 263 264 266 268 270 269 266 267 270 272 273 272 271 268 262 258 259 258 258 259 261 265 266 266 268 268 266 264 262 263 265 267 269 271 273 275 275 274 276 277 277 278 280 278
292 294 294 296 294 288 292 297 291 290 291 285 286 290 286 282 278 271 263 257 253 249 249 253 255 258 259 256 252 251 248 246 249 253 253 253 253 255 257 258 259 261 262 263 264 265 266 267 269 269 270 272 273 271 268 264 259 257 257 257 257 259 263 264 265 268 267 263 262 264 264 263 266 271 276 278 278 275 274 276 276 277 278 278 276
305 300 294 295 292 285 289 296 291 287 283 280 289 297 290 285 282 275 266 256 252 251 251 253 257 261 262 257 250 248 248 248 251 253 253 253 253 252 254 256 257 259 261 261 261 263 265 269 273 273 272 273 273 270 264 261 260 260 257 254 254 255 259 261 263 266 266 263 264 266 265 263 264 270 274 275 274 272 273 274 275 278 280 276 273
327 308 295 296 293 283 282 290 294 295 292 288 292 295 285 278 276 274 265 253 247 249 250 251 257 262 264 259 251 249 252 253 254 254 253 254 255 254 253 254 256 258 260 260 261 263 266 268 270 274 276 275 273 270 265 261 260 260 255 250 249 249 252 256 260 261 263 265 268 269 268 267 266 266 267 268 267 267 269 269 270 272 272 270 270
322 313 296 297 295 282 272 274 282 289 292 291 294 295 286 276 273 273 268 258 248 247 249 252 258 262 264 264 261 259 259 259 257 256 255 255 255 255 255 256 256 258 260 260 259 261 264 266 267 271 275 273 267 264 264 263 262 258 251 246 246 247 249 255 257 257 258 261 264 265 266 266 263 261 263 265 265 264 263 262 264 268 268 267 267
292 308 311 307 300 284 269 270 277 280 283 287 292 292 285 275 271 272 274 272 263 254 250 249 251 254 258 264 267 266 264 263 260 257 256 254 254 255 256 256 255 255 255 256 256 257 259 261 263 268 269 265 258 257 261 262 260 257 252 249 247 247 251 255 256 254 255 258 260 261 262 264 264 264 266 267 265 264 261 258 258 261 265 266 265
273 282 303 313 307 290 275 275 282 282 282 285 286 285 278 271 270 271 271 274 274 270 267 263 257 255 258 262 265 266 265 264 261 256 251 250 250 251 251 250 247 246 247 249 250 251 252 253 257 264 264 257 251 255 257 255 252 251 250 249 247 247 250 252 252 252 255 260 264 264 265 267 267 265 265 266 265 264 263 262 262 264 265 266 266
273 265 279 302 306 298 284 278 283 286 286 285 282 278 270 264 266 272 272 272 273 274 274 272 269 268 267 266 266 266 267 265 261 254 248 245 244 244 245 243 239 237 240 245 245 244 245 246 251 258 259 251 249 253 254 249 245 244 244 244 245 245 245 246 249 254 257 259 262 265 267 269 270 269 267 267 267 266 266 267 268 269 271 272 272
285 265 266 285 298 299 288 278 280 286 286 283 278 272 267 263 266 275 277 274 271 269 267 269 273 274 272 272 272 271 268 265 261 256 249 246 244 241 237 233 229 230 235 239 240 239 240 244 249 253 252 247 246 249 247 242 242 244 244 243 243 243 243 245 250 256 257 259 263 267 268 269 269 268 268 269 270 270 270 272 273 273 276 278 279
295 272 262 274 291 299 292 280 280 287 287 284 279 271 267 266 267 273 275 266 257 258 266 277 283 282 280 283 283 277 267 259 254 250 245 241 236 230 226 223 222 225 230 234 236 238 241 244 247 247 244 241 240 239 235 232 235 240 241 240 240 243 247 252 256 259 262 265 266 264 263 264 266 267 269 271 273 274 276 277 277 276 277 279 279
295 279 266 273 288 296 292 283 281 285 287 284 279 276 278 279 273 268 263 256 253 260 275 286 287 282 283 287 286 277 264 250 242 238 235 229 222 218 218 220 220 223 227 231 234 236 237 238 239 237 233 231 230 227 225 227 232 237 240 242 244 249 253 254 255 258 261 263 262 261 261 265 269 271 272 272 274 277 278 277 276 275 275 275 276
289 282 272 272 279 287 289 285 280 280 282 282 279 278 285 292 288 273 258 255 260 266 274 281 281 276 279 288 287 275 257 237 224 217 215 214 215 218 220 218 217 220 226 227 225 227 229 227 224 221 219 221 224 226 230 234 237 240 242 244 247 249 251 252 255 259 262 263 264 266 269 272 274 276 275 274 275 276 275 273 272 273 273 273 272
284 281 279 276 273 278 283 283 279 276 278 279 276 273 276 285 289 279 265 264 270 269 264 266 275 277 275 281 290 274 237 222 214 205 201 201 206 214 218 218 219 224 227 223 217 218 218 211 207 208 211 216 222 227 231 235 239 242 243 244 244 246 250 253 255 259 262 265 269 272 274 275 275 275 275 276 275 275 275 277 276 275 274 272 269
282 281 284 284 278 275 275 275 275 273 272 273 271 271 273 272 276 278 272 269 272 272 263 251 250 252 240 208 182 145 162 191 194 192 190 187 188 195 201 204 207 212 212 204 199 201 198 192 197 206 211 216 221 225 228 231 237 242 244 244 244 245 249 253 255 257 261 264 268 271 272 272 272 274 277 279 279 279 281 282 281 280 278 275 272
282 282 286 287 284 280 272 270 271 270 270 269 263 262 268 264 263 272 274 269 265 263 256 239 233 234 234 238 241 228 206 194 183 181 180 178 177 178 180 181 181 184 186 184 185 189 189 192 203 211 215 221 227 231 233 234 235 238 241 243 244 245 248 252 255 258 260 261 262 264 266 269 272 278 283 285 284 286 288 287 286 285 283 281 281
281 282 285 284 282 278 269 264 266 266 262 256 244 241 250 253 252 261 270 269 261 255 247 235 238 239 240 248 259 257 234 216 203 190 184 182 179 175 174 175 177 181 184 185 189 193 195 202 212 217 219 225 230 235 238 237 236 236 238 240 242 244 247 251 254 255 258 260 263 265 271 277 283 287 291 294 294 295 296 294 293 292 289 288 287
282 284 287 285 277 272 265 256 255 255 247 239 235 233 238 242 247 258 268 268 257 248 241 239 247 245 242 247 256 253 231 217 215 205 195 192 189 188 192 200 208 211 206 199 201 205 204 207 215 220 223 226 230 233 235 236 236 236 236 237 239 241 244 248 251 253 258 264 272 279 286 291 295 298 299 301 300 300 300 300 300 298 295 292 290
281 283 288 287 276 270 265 254 246 245 240 232 229 229 230 233 240 255 266 265 254 244 233 226 240 246 239 238 246 249 234 215 213 213 207 201 203 215 231 239 241 238 228 215 211 211 210 211 214 218 223 227 228 229 230 231 233 233 233 235 237 239 242 244 248 254 263 273 283 292 297 298 300 300 300 301 302 302 302 301 300 298 296 294 293
277 277 280 281 274 268 266 256 243 239 238 233 227 225 225 227 233 246 257 261 258 252 240 223 225 240 238 229 234 244 245 228 216 213 211 211 219 231 241 243 239 232 225 219 215 211 211 212 213 214 218 219 219 222 223 224 226 226 227 229 228 229 235 243 250 260 273 286 293 298 299 298 298 299 300 302 303 303 302 301 300 300 300 301 301
276 274 275 275 271 267 267 264 253 243 238 232 224 221 224 227 231 238 245 248 247 247 241 226 220 233 238 226 224 233 238 237 231 224 219 220 228 235 238 235 230 225 220 215 211 208 205 202 200 201 202 203 205 206 207 208 210 210 211 214 215 219 228 238 249 260 271 282 288 291 291 293 297 300 302 305 306 307 307 307 307 309 310 309 307
275 275 274 272 268 265 267 270 266 260 254 244 232 224 223 225 229 233 235 233 229 229 230 225 222 230 234 225 218 229 232 232 233 230 223 219 220 224 225 222 216 212 207 202 198 197 194 192 190 189 187 187 187 186 186 186 186 190 194 195 199 209 214 215 226 243 253 256 261 270 282 295 307 312 314 318 321 320 320 321 321 322 320 318 315
274 275 274 271 268 265 263 262 261 263 265 259 247 233 223 222 225 225 222 221 220 221 224 224 225 232 236 229 218 224 231 228 222 217 213 209 207 207 208 206 200 195 192 190 189 189 188 186 184 181 178 176 176 177 176 174 173 178 183 184 188 196 198 198 205 214 226 238 247 262 295 322 334 331 330 333 334 334 333 332 329 328 328 326 324
275 274 273 271 268 266 265 259 255 257 262 263 256 243 229 223 223 218 214 215 218 219 220 220 224 229 232 228 218 215 223 225 217 210 206 203 200 198 196 194 193 190 187 187 186 184 181 179 176 174 171 168 170 172 171 170 171 174 177 181 185 185 180 182 185 188 195 212 233 305 342 340 333 330 331 333 335 335 333 331 330 331 331 331 329
273 273 274 273 269 267 267 263 255 252 254 257 255 246 235 227 221 214 212 215 217 218 217 218 221 225 226 221 212 207 212 218 217 213 210 202 196 194 193 193 192 189 186 183 179 175 174 170 167 166 166 165 166 170 170 171 173 176 178 180 180 178 179 184 185 192 205 216 224 257 308 316 315 318 322 323 322 324 325 325 326 326 325 326 326
268 269 272 274 271 269 267 264 258 254 251 250 247 240 234 229 223 216 215 218 220 220 219 218 219 222 221 217 210 206 205 209 213 214 211 205 200 198 197 194 191 187 183 178 173 170 171 168 164 164 166 167 169 172 175 177 180 187 199 202 189 183 194 212 225 244 262 270 277 283 287 289 295 305 311 313 314 317 317 316 316 316 318 320 321
269 270 270 271 270 269 268 266 262 257 252 248 244 237 230 227 225 219 216 218 221 222 222 220 218 218 216 212 207 204 200 201 206 210 208 207 209 208 203 196 191 187 184 179 174 172 173 173 172 171 172 176 181 184 190 200 209 220 239 251 244 228 229 244 261 280 290 293 295 300 301 299 299 302 305 307 309 309 309 309 310 311 314 316 316
267 267 266 265 266 269 271 269 262 253 247 245 245 243 237 231 226 220 215 215 216 217 218 219 218 216 212 207 203 201 197 195 199 202 203 206 212 213 207 201 197 194 189 185 182 180 180 184 188 187 186 191 198 204 211 227 241 249 256 266 270 268 264 265 270 280 291 293 293 296 298 299 302 305 305 305 305 305 307 309 309 308 309 311 311
265 264 264 263 262 264 269 269 263 256 250 246 246 248 246 237 230 224 219 217 216 212 208 211 215 213 210 205 200 196 193 191 193 198 201 206 213 213 208 204 204 204 200 196 192 191 193 199 205 206 208 212 217 223 231 240 250 257 261 266 272 274 275 276 277 280 286 289 292 294 296 298 301 304 304 304 304 305 307 309 308 307 307 308 310
271 269 268 266 265 264 266 269 270 268 263 255 249 248 245 240 238 234 225 221 220 211 197 199 207 208 207 205 200 195 192 189 189 194 199 206 213 213 208 205 206 209 211 210 207 205 207 213 219 224 228 232 234 238 245 250 252 255 259 263 268 272 276 280 282 282 282 283 286 290 293 294 295 298 301 303 304 304 305 306 307 307 306 307 308
271 267 266 265 265 263 261 262 265 267 269 266 258 250 246 246 247 243 229 223 229 222 203 199 204 204 206 207 202 196 193 191 190 192 198 204 210 211 209 208 208 210 214 218 220 221 220 221 226 231 235 239 242 244 248 252 255 257 260 263 266 269 273 277 279 280 282 284 287 289 291 292 292 293 295 298 301 302 304 306 307 307 306 307 308
268 263 260 259 261 262 261 260 260 261 267 273 268 259 255 252 248 239 224 219 228 226 212 205 207 207 207 208 204 200 197 195 194 196 199 203 208 210 210 210 211 213 215 219 224 231 234 234 235 238 240 244 249 252 255 260 264 266 266 266 266 268 270 272 275 278 280 282 284 286 288 290 292 293 294 296 298 300 303 305 306 306 305 305 305
273 268 264 261 260 260 260 261 263 264 269 273 272 269 266 256 240 229 222 221 225 222 211 206 209 211 209 207 205 203 201 199 200 201 204 207 210 211 212 214 214 216 219 221 225 233 241 243 243 244 246 247 249 251 254 259 264 268 270 271 273 274 276 276 277 278 280 281 282 283 285 287 289 292 294 295 297 299 301 302 303 302 301 300 299
274 269 267 267 267 262 257 257 261 267 273 276 278 280 274 256 234 228 230 230 229 223 213 208 210 213 212 211 210 208 205 204 205 206 206 209 210 212 214 216 218 219 221 224 227 232 238 242 242 242 246 251 252 253 256 260 265 270 275 279 282 282 282 283 284 285 285 287 288 289 290 291 291 292 293 295 297 299 299 300 300 299 297 296 294
273 267 264 263 263 262 259 256 255 259 267 273 279 283 272 248 231 231 236 236 233 225 215 211 213 215 215 216 217 216 211 208 207 208 208 209 211 213 215 217 221 225 228 231 234 236 238 241 241 241 245 255 262 265 269 273 276 278 281 284 285 284 284 287 291 293 293 294 295 296 295 294 295 295 296 297 297 296 295 295 296 296 295 295 293
278 273 270 265 260 260 262 257 251 252 257 260 270 283 272 244 229 232 240 242 241 236 226 218 216 217 217 218 221 222 218 213 211 211 212 213 214 218 220 222 226 232 235 238 242 245 247 250 252 252 253 258 261 263 268 274 278 279 279 279 279 280 282 287 293 295 296 296 297 296 295 295 296 297 297 295 295 295 294 294 293 293 293 292 291
280 274 272 267 261 260 263 259 252 249 248 244 252 276 270 242 230 233 241 244 242 239 233 226 221 220 221 222 223 225 225 222 218 216 217 219 222 225 229 231 234 238 240 240 243 248 251 253 254 254 258 264 268 270 272 275 277 278 279 278 279 281 284 285 286 287 289 291 292 292 292 293 293 294 293 292 293 294 294 291 290 292 292 292 293
282 275 271 266 261 261 265 263 256 252 249 242 239 248 254 243 233 231 234 238 238 235 232 231 230 230 232 232 230 229 229 227 226 226 227 229 232 235 236 237 239 241 241 240 240 243 248 251 253 255 258 263 269 271 273 275 277 280 283 287 289 289 288 285 282 280 283 287 289 290 290 290 291 293 293 292 293 295 293 288 285 286 287 288 290
286 278 273 267 262 261 264 263 256 253 253 250 243 241 249 253 243 231 227 231 234 233 234 236 236 236 238 238 236 232 228 225 229 234 238 241 244 244 242 243 246 250 253 255 258 261 262 263 266 269 268 266 268 271 274 278 281 285 288 291 291 288 285 283 283 282 282 283 285 286 287 289 291 292 289 286 288 291 290 282 276 273 274 279 284
285 277 271 267 262 259 259 256 252 254 257 257 253 249 245 240 234 228 226 228 228 226 228 233 236 236 236 235 235 236 235 232 232 236 241 246 251 252 251 253 261 267 270 273 276 278 276 273 274 278 280 278 277 279 281 282 283 286 289 290 289 286 283 282 282 282 281 281 282 285 288 288 286 284 281 281 285 287 284 278 273 269 269 273 279
285 275 268 267 266 263 258 250 244 247 253 255 254 249 240 228 220 217 217 223 228 225 223 228 234 237 239 239 237 235 233 229 228 231 239 249 258 262 264 267 269 270 270 271 273 274 274 274 275 278 280 280 279 280 280 280 282 284 287 288 288 287 286 284 283 282 281 281 282 285 287 286 282 280 281 283 285 284 281 279 277 275 273 275 278
285 276 268 267 268 267 263 258 252 248 247 248 248 243 236 235 236 228 218 223 234 238 237 237 235 234 239 243 234 225 220 220 224 233 243 251 258 261 264 264 262 261 262 265 267 267 267 269 271 274 277 279 279 279 280 282 284 286 286 286 286 286 286 285 285 283 282 281 282 282 282 281 279 279 281 283 282 279 277 276 276 273 272 273 275
282 273 262 262 266 266 264 264 263 257 249 248 249 239 226 232 248 254 241 235 242 245 245 245 242 236 239 248 239 222 219 223 227 232 241 249 253 255 258 260 261 262 264 268 271 271 270 271 273 275 277 279 280 281 283 284 285 285 285 285 285 285 284 284 285 284 283 282 282 281 280 279 279 279 280 281 279 277 275 275 275 274 274 275 277
Height
3148 3148 3148 3148 3148 3147 3148 3149 3150 3151 3152 3153 3155 3156 3157 3159 3161 3162 3163 3164 3165 3165 3166 3168 3169 3170 3172 3173 3174 3174 3175 3176 3177 3178 3179 3180 3181 3182 3182 3183 3184 3185 3185 3186 3186 3186 3187 3187 3187 3187 3187 3187 3187 3188 3188 3188 3188 3188 3188 3188 3188 3188 3189 3190 3191 3192 3193 3193 3193 3193 3194 3194 3195 3195 3196 3197 3197 3197 3197 3197 3196 3196 3197 3198 3197
3147 3147 3146 3148 3149 3149 3149 3149 3148 3148 3149 3151 3153 3154 3156 3158 3159 3160 3160 3162 3163 3163 3164 3165 3167 3168 3169 3170 3171 3172 3173 3174 3175 3176 3176 3177 3179 3179 3180 3180 3181 3183 3183 3184 3184 3185 3185 3185 3186 3186 3186 3186 3186 3186 3187 3187 3187 3187 3187 3187 3187 3186 3186 3187 3188 3189 3191 3191 3191 3191 3191 3192 3192 3193 3194 3194 3194 3194 3194 3194 3194 3194 3194 3195 3196
3146 3146 3145 3145 3147 3148 3149 3149 3149 3147 3146 3148 3150 3152 3154 3155 3156 3157 3158 3160 3160 3161 3162 3163 3164 3165 3166 3168 3169 3170 3171 3172 3173 3173 3174 3174 3176 3177 3177 3177 3179 3180 3180 3181 3182 3182 3183 3184 3184 3184 3184 3184 3184 3184 3185 3185 3185 3185 3185 3186 3185 3184 3184 3185 3186 3187 3188 3189 3189 3189 3189 3190 3190 3191 3191 3192 3192 3192 3192 3192 3192 3192 3193 3193 3193
3145 3145 3144 3144 3144 3145 3147 3149 3149 3148 3146 3146 3148 3150 3151 3151 3152 3154 3155 3157 3158 3159 3160 3161 3162 3163 3163 3165 3166 3168 3169 3169 3170 3171 3171 3171 3172 3173 3174 3174 3176 3177 3178 3179 3180 3180 3181 3182 3182 3182 3182 3182 3182 3183 3183 3182 3182 3183 3183 3183 3183 3183 3183 3183 3184 3185 3186 3187 3187 3187 3187 3188 3188 3189 3189 3189 3189 3189 3189 3189 3190 3190 3191 3190 3190
3143 3142 3141 3141 3141 3142 3143 3145 3147 3147 3147 3147 3147 3148 3149 3149 3150 3151 3152 3154 3156 3157 3158 3158 3159 3160 3161 3162 3164 3165 3166 3167 3167 3168 3169 3169 3169 3170 3172 3172 3173 3175 3176 3176 3177 3179 3180 3180 3180 3180 3180 3180 3180 3180 3180 3180 3180 3181 3181 3181 3181 3181 3181 3181 3182 3183 3183 3184 3184 3185 3185 3186 3186 3186 3187 3186 3186 3186 3187 3187 3187 3188 3188 3187 3187
3140 3139 3138 3139 3140 3140 3139 3140 3142 3144 3146 3147 3146 3146 3146 3147 3148 3149 3150 3151 3153 3154 3154 3155 3157 3158 3159 3160 3161 3162 3163 3164 3164 3165 3165 3166 3167 3168 3169 3170 3171 3172 3172 3173 3174 3177 3178 3179 3179 3178 3178 3178 3178 3178 3177 3177 3178 3179 3179 3179 3179 3179 3179 3179 3179 3180 3180 3181 3181 3182 3183 3183 3184 3184 3184 3184 3184 3184 3184 3184 3185 3185 3186 3185 3185
3136 3136 3136 3137 3138 3138 3137 3137 3138 3140 3142 3143 3144 3143 3143 3144 3145 3146 3147 3148 3150 3151 3152 3153 3154 3155 3156 3157 3158 3159 3160 3161 3161 3162 3163 3164 3165 3166 3167 3167 3168 3168 3169 3169 3170 3171 3173 3175 3176 3177 3176 3176 3175 3175 3175 3175 3176 3177 3176 3176 3177 3177 3177 3177 3177 3177 3177 3178 3179 3179 3180 3180 3181 3181 3181 3181 3181 3181 3181 3181 3182 3183 3183 3183 3183
3132 3132 3133 3134 3136 3137 3136 3136 3136 3136 3138 3139 3140 3140 3140 3141 3142 3142 3143 3144 3146 3148 3150 3150 3150 3151 3152 3154 3155 3156 3157 3158 3158 3159 3160 3161 3162 3163 3163 3164 3165 3165 3166 3166 3167 3167 3169 3171 3172 3174 3175 3174 3173 3172 3173 3173 3174 3174 3174 3174 3175 3176 3175 3175 3174 3175 3175 3175 3176 3176 3177 3177 3178 3178 3178 3178 3178 3178 3178 3179 3179 3180 3181 3181 3181
3130 3130 3130 3133 3135 3136 3136 3136 3136 3135 3136 3136 3136 3135 3135 3137 3138 3137 3137 3140 3142 3144 3146 3146 3147 3148 3149 3151 3151 3153 3155 3156 3156 3156 3157 3157 3159 3159 3160 3161 3161 3162 3163 3163 3164 3164 3165 3167 3168 3169 3170 3171 3171 3171 3171 3171 3171 3172 3172 3172 3172 3172 3172 3173 3173 3173 3173 3173 3174 3174 3174 3174 3175 3175 3176 3175 3175 3175 3176 3176 3177 3178 3178 3179 3179
3130 3130 3130 3131 3134 3135 3136 3137 3136 3135 3135 3135 3134 3133 3132 3132 3132 3132 3133 3135 3138 3140 3141 3142 3143 3145 3147 3147 3148 3150 3152 3153 3153 3153 3153 3153 3154 3155 3156 3157 3158 3158 3159 3160 3160 3161 3162 3163 3165 3166 3166 3167 3168 3169 3169 3169 3169 3169 3169 3169 3169 3170 3170 3171 3171 3171 3171 3171 3171 3172 3172 3172 3173 3173 3173 3173 3172 3173 3173 3174 3175 3175 3176 3176 3176
3128 3128 3129 3130 3132 3133 3135 3135 3134 3133 3133 3133 3132 3132 3131 3129 3129 3130 3132 3133 3135 3137 3138 3138 3140 3141 3142 3142 3144 3147 3149 3149 3149 3149 3149 3149 3150 3151 3151 3153 3154 3154 3156 3157 3157 3158 3158 3160 3161 3163 3163 3164 3165 3165 3167 3168 3167 3166 3166 3166 3167 3167 3168 3168 3169 3169 3169 3169 3169 3170 3170 3170 3170 3170 3170 3170 3170 3170 3171 3171 3172 3173 3173 3173 3173
3127 3127 3127 3128 3129 3130 3131 3131 3131 3131 3131 3131 3129 3129 3129 3129 3128 3129 3131 3132 3133 3135 3135 3135 3136 3136 3137 3138 3141 3144 3145 3144 3145 3145 3145 3145 3146 3146 3147 3148 3150 3151 3152 3153 3154 3155 3155 3155 3157 3159 3160 3161 3162 3163 3164 3165 3164 3163 3163 3164 3164 3165 3165 3166 3167 3167 3167 3167 3168 3168 3168 3168 3168 3168 3168 3168 3168 3168 3169 3169 3169 3170 3170 3170 3171
3126 3126 3125 3125 3126 3127 3128 3129 3129 3129 3129 3128 3127 3127 3127 3127 3127 3128 3130 3131 3132 3132 3131 3130 3131 3132 3132 3134 3138 3139 3139 3138 3139 3140 3140 3140 3141 3142 3143 3145 3146 3147 3148 3150 3151 3152 3152 3152 3153 3155 3156 3157 3158 3159 3161 3161 3160 3160 3161 3161 3161 3162 3163 3163 3164 3164 3164 3165 3165 3165 3165 3165 3165 3165 3165 3165 3166 3166 3167 3167 3167 3168 3168 3168 3169
3125 3124 3124 3124 3124 3124 3125 3126 3126 3126 3126 3126 3125 3124 3124 3124 3125 3125 3127 3129 3129 3128 3126 3125 3126 3128 3128 3130 3132 3133 3133 3133 3134 3134 3135 3135 3136 3138 3139 3141 3142 3144 3145 3146 3147 3148 3149 3150 3150 3152 3153 3153 3154 3156 3157 3157 3157 3157 3158 3159 3159 3160 3160 3161 3162 3162 3163 3163 3163 3163 3163 3163 3163 3163 3163 3163 3163 3164 3165 3165 3166 3166 3166 3166 3166
3123 3123 3122 3122 3122 3122 3123 3123 3124 3124 3124 3123 3123 3123 3123 3123 3123 3124 3125 3126 3126 3125 3122 3121 3122 3123 3124 3125 3126 3127 3127 3127 3128 3129 3130 3130 3132 3133 3135 3137 3138 3139 3140 3142 3143 3144 3146 3147 3148 3149 3150 3151 3152 3153 3153 3153 3154 3155 3156 3157 3157 3158 3158 3159 3159 3160 3160 3160 3160 3161 3161 3160 3160 3160 3160 3160 3161 3161 3162 3163 3163 3164 3164 3164 3164
3120 3121 3120 3120 3121 3121 3121 3122 3121 3121 3122 3121 3121 3121 3121 3122 3122 3122 3123 3123 3123 3123 3121 3120 3120 3120 3119 3120 3121 3122 3123 3123 3124 3124 3125 3126 3127 3128 3130 3131 3133 3134 3135 3137 3139 3140 3142 3143 3145 3145 3146 3148 3149 3149 3150 3150 3151 3153 3154 3155 3155 3156 3156 3157 3157 3157 3158 3157 3158 3158 3158 3158 3157 3158 3158 3158 3158 3159 3159 3160 3161 3161 3162 3162 3162
3116 3117 3117 3117 3118 3119 3119 3120 3119 3119 3119 3119 3119 3119 3120 3120 3120 3121 3121 3121 3121 3121 3120 3120 3119 3118 3117 3117 3117 3118 3118 3119 3119 3119 3120 3121 3122 3123 3124 3126 3128 3130 3131 3133 3135 3137 3139 3140 3142 3142 3143 3145 3145 3146 3147 3147 3148 3150 3152 3153 3153 3154 3154 3155 3155 3155 3155 3155 3155 3155 3155 3155 3155 3156 3156 3156 3156 3156 3157 3157 3158 3158 3158 3158 3159
3113 3114 3114 3114 3115 3116 3116 3116 3117 3117 3117 3116 3117 3117 3117 3117 3118 3118 3118 3118 3118 3118 3118 3117 3116 3116 3115 3114 3113 3113 3114 3115 3115 3115 3115 3116 3117 3118 3119 3121 3124 3126 3128 3129 3131 3133 3136 3138 3139 3139 3140 3142 3142 3143 3144 3144 3146 3147 3149 3150 3151 3151 3152 3152 3152 3153 3153 3153 3153 3153 3153 3153 3154 3154 3154 3153 3154 3154 3154 3155 3155 3155 3155 3155 3155
3110 3110 3111 3111 3111 3112 3113 3113 3113 3114 3114 3114 3114 3114 3114 3114 3114 3115 3115 3115 3116 3116 3115 3115 3114 3114 3113 3112 3110 3110 3111 3111 3112 3112 3112 3112 3113 3114 3115 3117 3120 3123 3125 3127 3128 3130 3133 3135 3135 3136 3137 3138 3139 3140 3141 3142 3143 3145 3146 3147 3148 3149 3149 3149 3150 3150 3150 3151 3151 3151 3151 3152 3152 3151 3151 3151 3151 3151 3152 3152 3152 3152 3152 3152 3151
3107 3107 3107 3107 3107 3108 3109 3109 3110 3111 3112 3112 3112 3111 3112 3112 3112 3113 3113 3113 3113 3113 3113 3113 3113 3113 3112 3110 3108 3108 3108 3109 3110 3110 3109 3109 3110 3111 3113 3115 3117 3120 3122 3124 3126 3127 3129 3131 3132 3133 3134 3136 3137 3138 3139 3140 3141 3143 3144 3144 3145 3146 3146 3147 3147 3148 3148 3148 3149 3149 3149 3149 3149 3149 3149 3149 3149 3149 3149 3149 3149 3148 3148 3148 3148
3104 3104 3104 3103 3104 3105 3106 3106 3107 3108 3109 3109 3109 3109 3110 3110 3110 3111 3112 3112 3112 3112 3111 3111 3112 3112 3111 3109 3108 3107 3107 3107 3108 3108 3108 3109 3109 3110 3112 3113 3115 3117 3119 3121 3123 3124 3125 3127 3129 3131 3132 3134 3135 3136 3137 3138 3139 3140 3141 3142 3143 3144 3144 3144 3145 3145 3145 3146 3146 3146 3147 3147 3146 3146 3146 3146 3146 3146 3145 3145 3145 3145 3144 3145 3145
3102 3102 3101 3100 3100 3101 3102 3104 3104 3105 3106 3106 3106 3106 3107 3107 3107 3109 3110 3111 3111 3111 3109 3109 3110 3110 3109 3108 3107 3107 3106 3106 3107 3108 3108 3108 3109 3110 3111 3112 3114 3115 3117 3119 3121 3122 3123 3125 3127 3129 3131 3133 3134 3134 3135 3135 3136 3137 3139 3140 3141 3141 3141 3142 3143 3143 3143 3144 3144 3144 3144 3144 3144 3143 3143 3143 3143 3142 3142 3142 3142 3142 3142 3142 3142
3099 3099 3098 3099 3099 3098 3099 3100 3101 3102 3102 3103 3104 3104 3104 3104 3105 3106 3108 3110 3111 3110 3108 3108 3109 3109 3108 3107 3107 3106 3106 3106 3106 3107 3108 3108 3109 3109 3110 3111 3113 3114 3115 3117 3118 3120 3122 3124 3126 3128 3129 3130 3131 3132 3133 3134 3135 3135 3136 3137 3138 3139 3139 3140 3141 3141 3141 3142 3142 3142 3141 3141 3141 3141 3141 3141 3141 3140 3140 3140 3140 3140 3140 3140 3140
3097 3096 3096 3097 3097 3097 3096 3096 3097 3098 3099 3100 3101 3102 3102 3102 3102 3104 3106 3108 3110 3110 3108 3107 3107 3108 3107 3106 3106 3106 3106 3106 3106 3107 3107 3107 3108 3108 3109 3110 3112 3113 3114 3116 3118 3119 3122 3124 3125 3126 3127 3128 3129 3130 3131 3132 3133 3134 3134 3135 3136 3137 3138 3138 3139 3139 3139 3139 3139 3139 3139 3139 3140 3140 3140 3140 3139 3139 3139 3139 3139 3139 3138 3138 3138
3094 3094 3094 3094 3095 3094 3093 3093 3094 3095 3096 3097 3098 3099 3100 3100 3100 3101 3103 3105 3108 3109 3107 3105 3106 3107 3106 3105 3105 3106 3106 3106 3106 3106 3106 3107 3107 3108 3108 3110 3111 3112 3114 3116 3117 3119 3121 3122 3123 3124 3125 3126 3127 3128 3129 3130 3131 3132 3133 3134 3134 3135 3136 3136 3137 3137 3137 3137 3138 3138 3138 3139 3139 3139 3138 3138 3138 3138 3138 3138 3138 3138 3137 3137 3136
3092 3092 3092 3092 3092 3091 3090 3090 3091 3092 3093 3094 3095 3095 3097 3098 3098 3100 3101 3103 3105 3106 3104 3103 3104 3105 3104 3103 3104 3104 3105 3106 3106 3106 3106 3106 3107 3108 3108 3109 3110 3111 3113 3114 3115 3117 3118 3120 3121 3122 3123 3124 3125 3126 3127 3128 3129 3130 3131 3132 3133 3133 3134 3135 3135 3136 3136 3136 3137 3137 3137 3137 3137 3137 3137 3137 3137 3137 3136 3136 3136 3136 3136 3135 3135
3090 3090 3090 3090 3090 3089 3088 3088 3088 3088 3089 3091 3092 3093 3094 3096 3097 3098 3100 3101 3103 3104 3103 3103 3103 3103 3103 3102 3102 3103 3104 3105 3105 3106 3106 3106 3107 3108 3108 3109 3109 3110 3111 3112 3113 3115 3116 3117 3119 3120 3121 3122 3123 3124 3125 3126 3127 3128 3129 3130 3131 3132 3132 3133 3134 3134 3135 3135 3135 3136 3136 3136 3136 3135 3135 3135 3135 3135 3135 3135 3134 3134 3134 3134 3133
3086 3086 3087 3087 3087 3086 3086 3086 3085 3085 3085 3087 3089 3090 3092 3093 3094 3096 3098 3099 3101 3103 3103 3102 3102 3101 3101 3101 3101 3102 3103 3104 3105 3105 3106 3106 3107 3108 3108 3108 3109 3109 3110 3111 3112 3113 3114 3116 3117 3119 3120 3121 3122 3123 3124 3125 3126 3127 3128 3129 3129 3130 3131 3132 3132 3133 3133 3134 3134 3134 3134 3134 3134 3134 3134 3134 3134 3134 3133 3133 3133 3133 3132 3132 3132
3083 3083 3083 3083 3083 3084 3084 3084 3084 3083 3082 3083 3084 3086 3088 3090 3091 3092 3094 3096 3098 3100 3100 3100 3100 3100 3099 3099 3100 3101 3102 3103 3103 3104 3105 3106 3106 3107 3108 3108 3109 3109 3110 3111 3112 3113 3114 3115 3116 3118 3119 3120 3121 3122 3123 3124 3125 3126 3127 3128 3128 3129 3130 3130 3131 3131 3132 3132 3132 3132 3133 3133 3133 3132 3132 3132 3132 3132 3132 3132 3131 3131 3131 3130 3130
3081 3081 3081 3080 3080 3080 3081 3082 3083 3083 3082 3081 3081 3082 3084 3086 3088 3089 3091 3093 3095 3096 3096 3096 3097 3098 3097 3098 3099 3099 3100 3101 3102 3102 3103 3104 3105 3106 3107 3107 3108 3109 3110 3110 3111 3113 3114 3114 3116 3117 3118 3119 3120 3121 3122 3123 3124 3125 3126 3127 3127 3128 3128 3129 3129 3130 3130 3131 3131 3131 3131 3131 3131 3131 3131 3131 3131 3131 3130 3130 3129 3129 3129 3129 3128
3079 3079 3078 3078 3078 3078 3078 3079 3080 3081 3082 3082 3081 3080 3081 3083 3085 3087 3088 3090 3092 3093 3093 3093 3095 3095 3096 3096 3097 3098 3099 3100 3101 3101 3102 3103 3104 3105 3106 3106 3107 3108 3109 3110 3111 3112 3113 3114 3115 3116 3117 3118 3119 3120 3122 3123 3124 3124 3125 3126 3126 3127 3128 3128 3128 3129 3129 3129 3129 3130 3130 3130 3130 3130 3130 3130 3129 3129 3129 3128 3128 3128 3127 3127 3127
3077 3077 3076 3076 3076 3076 3076 3076 3077 3077 3079 3081 3082 3081 3081 3081 3082 3084 3086 3087 3089 3090 3090 3091 3092 3093 3094 3095 3095 3096 3097 3099 3100 3101 3101 3102 3103 3104 3105 3106 3107 3107 3108 3109 3110 3111 3112 3113 3115 3116 3117 3118 3119 3120 3121 3122 3123 3124 3124 3125 3125 3126 3126 3127 3127 3127 3128 3128 3128 3128 3129 3129 3129 3129 3129 3128 3128 3128 3127 3127 3127 3126 3126 3126 3126
3074 3074 3074 3074 3074 3074 3074 3074 3074 3075 3076 3077 3079 3080 3081 3081 3080 3081 3083 3085 3086 3087 3088 3089 3090 3091 3092 3093 3094 3094 3096 3098 3099 3100 3101 3102 3103 3104 3104 3105 3106 3107 3107 3108 3109 3110 3112 3113 3114 3115 3116 3117 3118 3119 3120 3121 3122 3123 3124 3124 3125 3125 3125 3126 3126 3126 3126 3127 3127 3127 3128 3128 3127 3127 3127 3127 3127 3126 3126 3126 3126 3126 3125 3125 3125
3072 3071 3072 3072 3072 3072 3072 3072 3073 3073 3074 3074 3075 3076 3078 3079 3079 3079 3081 3083 3084 3085 3086 3087 3088 3089 3091 3092 3092 3093 3094 3096 3098 3099 3101 3102 3103 3103 3104 3105 3106 3106 3107 3108 3109 3110 3111 3112 3112 3114 3115 3116 3118 3119 3120 3121 3121 3122 3123 3123 3124 3124 3124 3124 3124 3125 3125 3125 3126 3126 3126 3126 3126 3126 3126 3125 3125 3125 3125 3125 3125 3124 3124 3123 3122
3070 3069 3069 3069 3069 3069 3069 3070 3071 3072 3073 3073 3073 3073 3075 3076 3077 3078 3080 3082 3083 3083 3084 3085 3086 3087 3089 3090 3091 3091 3092 3094 3096 3098 3100 3101 3103 3104 3105 3105 3106 3106 3107 3108 3109 3109 3110 3111 3112 3113 3114 3115 3116 3117 3119 3119 3120 3121 3122 3122 3122 3123 3123 3123 3123 3123 3123 3123 3124 3124 3124 3124 3124 3124 3124 3124 3123 3123 3123 3123 3122 3122 3122 3121 3120
3068 3067 3067 3067 3067 3067 3067 3067 3068 3069 3071 3072 3072 3074 3075 3076 3077 3079 3080 3081 3081 3081 3082 3083 3084 3085 3087 3088 3089 3090 3091 3092 3094 3096 3098 3100 3102 3103 3104 3105 3106 3106 3107 3107 3108 3109 3110 3111 3111 3112 3113 3114 3115 3116 3117 3118 3119 3119 3120 3120 3120 3121 3121 3122 3122 3122 3122 3122 3122 3122 3122 3121 3121 3121 3121 3121 3122 3121 3121 3120 3120 3120 3119 3119 3119
3065 3065 3066 3066 3066 3066 3066 3066 3067 3068 3069 3070 3071 3073 3075 3076 3078 3079 3079 3080 3080 3079 3079 3081 3082 3084 3085 3087 3088 3088 3089 3091 3092 3095 3097 3099 3101 3102 3103 3104 3105 3106 3107 3107 3107 3108 3109 3110 3111 3111 3112 3113 3114 3115 3115 3116 3117 3117 3118 3118 3119 3119 3119 3119 3120 3120 3120 3120 3119 3119 3119 3119 3120 3119 3119 3119 3119 3119 3119 3118 3117 3117 3117 3117 3116
3064 3064 3065 3065 3065 3065 3065 3065 3066 3067 3067 3068 3069 3071 3072 3073 3075 3076 3078 3080 3081 3080 3079 3081 3082 3083 3084 3086 3086 3087 3088 3089 3091 3093 3096 3098 3100 3101 3102 3103 3104 3105 3106 3107 3107 3107 3108 3109 3110 3110 3111 3112 3113 3113 3114 3115 3115 3116 3116 3117 3117 3117 3117 3117 3117 3117 3118 3118 3117 3117 3117 3117 3117 3118 3117 3117 3117 3116 3116 3116 3115 3115 3114 3115 3114
3061 3062 3063 3063 3064 3064 3064 3063 3064 3065 3066 3066 3067 3067 3068 3070 3071 3074 3077 3080 3082 3081 3081 3081 3082 3083 3084 3085 3085 3086 3087 3088 3090 3092 3094 3096 3098 3099 3100 3102 3103 3104 3104 3105 3106 3106 3107 3107 3108 3109 3110 3110 3111 3112 3112 3113 3114 3114 3115 3115 3115 3115 3115 3115 3115 3115 3115 3115 3115 3115 3114 3114 3114 3115 3115 3115 3114 3114 3113 3113 3113 3112 3111 3111 3111
3059 3060 3060 3061 3062 3062 3062 3062 3062 3062 3063 3064 3064 3065 3066 3068 3070 3073 3076 3078 3079 3080 3080 3080 3081 3082 3083 3083 3084 3085 3086 3088 3089 3091 3092 3094 3096 3097 3099 3100 3101 3102 3102 3103 3104 3105 3106 3106 3107 3107 3108 3109 3109 3110 3111 3111 3112 3112 3113 3113 3113 3113 3113 3113 3113 3113 3112 3112 3112 3112 3112 3111 3111 3111 3112 3112 3112 3111 3111 3110 3110 3109 3108 3107 3107
3058 3058 3058 3059 3059 3060 3061 3061 3062 3062 3062 3062 3063 3064 3066 3067 3070 3072 3074 3075 3076 3077 3077 3078 3079 3080 3082 3083 3083 3084 3086 3087 3088 3090 3091 3093 3094 3096 3097 3098 3099 3100 3101 3102 3102 3103 3104 3104 3105 3105 3106 3106 3107 3108 3108 3109 3109 3110 3110 3110 3111 3111 3111 3111 3111 3110 3110 3110 3110 3110 3109 3109 3109 3108 3108 3108 3108 3108 3107 3107 3106 3106 3105 3104 3103
3057 3057 3057 3057 3057 3058 3058 3059 3060 3061 3061 3062 3062 3064 3066 3067 3069 3071 3072 3073 3075 3076 3076 3077 3078 3079 3081 3082 3083 3084 3085 3086 3087 3089 3090 3092 3093 3095 3096 3097 3098 3099 3099 3100 3100 3101 3101 3101 3102 3102 3103 3103 3104 3105 3106 3106 3107 3107 3107 3108 3109 3109 3109 3109 3109 3108 3107 3107 3106 3106 3106 3106 3106 3105 3105 3104 3104 3103 3103 3102 3102 3101 3101 3100 3099
3055 3055 3055 3055 3056 3056 3056 3057 3058 3059 3060 3060 3061 3063 3064 3066 3067 3069 3070 3072 3074 3075 3075 3076 3076 3078 3079 3081 3082 3083 3084 3085 3087 3088 3089 3090 3092 3093 3094 3096 3097 3097 3098 3098 3098 3098 3098 3099 3099 3099 3101 3102 3103 3104 3104 3105 3105 3105 3106 3107 3107 3107 3107 3107 3107 3106 3105 3104 3103 3103 3103 3102 3102 3101 3101 3100 3099 3099 3098 3097 3097 3096 3096 3095 3095
3054 3054 3054 3053 3053 3054 3054 3055 3056 3057 3057 3058 3060 3061 3062 3063 3065 3066 3068 3070 3071 3073 3074 3074 3075 3076 3077 3079 3080 3082 3083 3084 3086 3087 3088 3089 3091 3092 3093 3094 3095 3096 3096 3096 3096 3096 3097 3098 3098 3099 3101 3101 3101 3102 3102 3103 3103 3103 3104 3104 3105 3106 3106 3105 3104 3104 3103 3102 3101 3100 3099 3098 3098 3097 3096 3095 3094 3094 3093 3093 3092 3092 3091 3091 3091
3052 3053 3053 3052 3052 3053 3053 3054 3055 3055 3055 3056 3057 3058 3059 3061 3062 3064 3065 3067 3069 3070 3071 3072 3073 3074 3075 3077 3079 3080 3082 3083 3084 3085 3087 3088 3090 3091 3092 3093 3093 3093 3093 3093 3094 3094 3095 3094 3095 3098 3100 3100 3099 3099 3099 3099 3099 3100 3100 3100 3101 3103 3105 3104 3102 3101 3100 3100 3099 3098 3096 3095 3094 3092 3092 3091 3090 3089 3089 3089 3088 3088 3088 3088 3087
3051 3051 3052 3052 3052 3052 3052 3053 3054 3054 3054 3054 3055 3056 3057 3058 3060 3062 3063 3065 3066 3068 3069 3070 3071 3072 3074 3075 3077 3078 3079 3081 3083 3084 3085 3086 3087 3087 3088 3088 3088 3087 3088 3088 3089 3090 3090 3090 3091 3095 3098 3098 3096 3096 3096 3095 3095 3096 3097 3097 3098 3099 3100 3099 3098 3097 3097 3096 3095 3095 3093 3092 3091 3089 3088 3087 3087 3086 3086 3085 3085 3085 3085 3084 3084
3050 3050 3050 3051 3051 3051 3051 3051 3052 3052 3052 3052 3053 3054 3055 3056 3058 3060 3061 3062 3064 3066 3067 3068 3069 3070 3071 3072 3074 3074 3075 3076 3077 3078 3079 3080 3081 3080 3081 3082 3083 3084 3086 3088 3089 3090 3091 3091 3090 3091 3093 3094 3094 3093 3093 3093 3093 3093 3094 3094 3094 3094 3094 3094 3094 3094 3093 3092 3092 3091 3090 3089 3088 3087 3085 3084 3083 3083 3083 3082 3082 3082 3081 3080 3081
3049 3049 3049 3049 3049 3050 3050 3050 3050 3050 3050 3051 3052 3053 3054 3055 3057 3058 3059 3060 3061 3063 3065 3065 3065 3066 3067 3069 3070 3071 3072 3073 3073 3075 3077 3078 3078 3078 3079 3082 3084 3086 3088 3090 3091 3092 3093 3092 3091 3090 3091 3091 3091 3091 3091 3091 3090 3089 3089 3089 3089 3089 3090 3089 3089 3089 3089 3089 3088 3087 3086 3085 3084 3083 3081 3080 3080 3080 3080 3079 3078 3078 3078 3077 3078
3047 3047 3048 3048 3048 3049 3049 3049 3049 3049 3050 3051 3051 3052 3053 3054 3055 3056 3057 3057 3058 3060 3063 3064 3065 3066 3067 3068 3069 3069 3070 3072 3074 3076 3078 3080 3080 3081 3082 3084 3086 3087 3088 3089 3090 3090 3091 3091 3090 3090 3089 3089 3089 3089 3088 3088 3087 3086 3086 3085 3085 3085 3085 3085 3085 3085 3085 3084 3084 3083 3082 3081 3080 3078 3077 3077 3077 3077 3077 3076 3075 3075 3074 3074 3074
3046 3046 3047 3047 3047 3048 3049 3048 3047 3047 3049 3050 3051 3052 3053 3054 3054 3054 3055 3057 3058 3060 3062 3064 3065 3066 3067 3068 3068 3068 3070 3073 3075 3077 3078 3079 3080 3081 3082 3084 3085 3086 3087 3087 3088 3088 3088 3088 3088 3087 3087 3086 3086 3086 3085 3084 3083 3083 3082 3082 3081 3081 3080 3080 3080 3080 3080 3080 3080 3079 3078 3077 3077 3075 3074 3074 3074 3074 3073 3072 3071 3071 3070 3070 3070
3044 3045 3045 3046 3046 3047 3048 3048 3047 3047 3048 3050 3050 3052 3053 3053 3053 3053 3055 3056 3058 3059 3062 3063 3064 3066 3067 3068 3069 3070 3072 3073 3075 3076 3077 3078 3079 3080 3081 3082 3083 3085 3085 3085 3085 3085 3086 3086 3085 3085 3084 3084 3083 3082 3082 3081 3080 3079 3079 3078 3077 3077 3076 3076 3075 3075 3075 3075 3075 3075 3074 3074 3073 3072 3071 3070 3069 3069 3069 3069 3068 3067 3066 3066 3066